TimeAKDT,TemperatureF,Dew PointF,Humidity,Sea Level PressureIn,VisibilityMPH,Wind Direction,Wind SpeedMPH,Gust SpeedMPH,PrecipitationIn,Events,Conditions,WindDirDegrees,DateUTC
12:16 AM,51.8,46.4,82,29.74,-9999.0,East,3.5,-,0.02,,Overcast,100,2013-08-28 08:16:00
12:36 AM,51.8,48.2,88,29.74,-9999.0,East,4.6,-,0.03,,Overcast,80,2013-08-28 08:36:00
12:56 AM,51.8,48.2,88,29.74,-9999.0,Calm,Calm,-,0.05,,Overcast,0,2013-08-28 08:56:00
1:16 AM,51.8,46.4,82,29.74,-9999.0,SE,3.5,-,0.01,,Overcast,130,2013-08-28 09:16:00
1:36 AM,51.8,46.4,82,29.74,-9999.0,East,4.6,-,0.03,,Overcast,80,2013-08-28 09:36:00
1:56 AM,51.8,46.4,82,29.74,-9999.0,East,3.5,-,0.03,,Overcast,80,2013-08-28 09:56:00
2:16 AM,51.8,48.2,88,29.74,-9999.0,ENE,4.6,-,N/A,,Overcast,70,2013-08-28 10:16:00
2:36 AM,51.8,48.2,88,29.73,-9999.0,ENE,4.6,-,N/A,,Overcast,60,2013-08-28 10:36:00
2:56 AM,51.8,48.2,88,29.73,-9999.0,East,3.5,-,N/A,,Unknown,90,2013-08-28 10:56:00
3:16 AM,51.8,48.2,88,29.73,-9999.0,ENE,3.5,-,N/A,,Unknown,60,2013-08-28 11:16:00
3:36 AM,51.8,46.4,82,29.73,-9999.0,ESE,3.5,-,N/A,,Overcast,110,2013-08-28 11:36:00
3:56 AM,51.8,48.2,88,29.73,-9999.0,Calm,Calm,-,N/A,,Unknown,0,2013-08-28 11:56:00
4:16 AM,51.8,46.4,82,29.73,-9999.0,Calm,Calm,-,N/A,,Overcast,0,2013-08-28 12:16:00
4:36 AM,51.8,48.2,88,29.73,-9999.0,Calm,Calm,-,N/A,,Unknown,0,2013-08-28 12:36:00
4:56 AM,51.8,48.2,88,29.73,-9999.0,Calm,Calm,-,N/A,,Overcast,0,2013-08-28 12:56:00
5:16 AM,51.8,46.4,82,29.73,-9999.0,ENE,3.5,-,N/A,,Overcast,60,2013-08-28 13:16:00
5:36 AM,51.8,46.4,82,29.73,-9999.0,Calm,Calm,-,N/A,,Overcast,0,2013-08-28 13:36:00
5:56 AM,51.8,46.4,82,29.73,-9999.0,Calm,Calm,-,N/A,,Overcast,0,2013-08-28 13:56:00
6:16 AM,51.8,46.4,82,29.72,-9999.0,Calm,Calm,-,N/A,,Overcast,0,2013-08-28 14:16:00
6:36 AM,50.0,46.4,87,29.72,-9999.0,East,4.6,-,N/A,,Unknown,100,2013-08-28 14:36:00
6:56 AM,50.0,46.4,87,29.72,-9999.0,East,3.5,-,N/A,,Unknown,100,2013-08-28 14:56:00
7:16 AM,50.0,46.4,87,29.72,-9999.0,ESE,4.6,-,N/A,,Mostly Cloudy,110,2013-08-28 15:16:00
7:36 AM,50.0,46.4,87,29.72,-9999.0,East,4.6,-,N/A,,Unknown,100,2013-08-28 15:36:00
7:56 AM,50.0,46.4,87,29.72,-9999.0,East,3.5,-,N/A,,Unknown,90,2013-08-28 15:56:00
8:16 AM,50.0,46.4,87,29.72,-9999.0,Calm,Calm,-,N/A,,Unknown,0,2013-08-28 16:16:00
8:36 AM,51.8,46.4,82,29.72,-9999.0,ENE,4.6,-,N/A,,Overcast,70,2013-08-28 16:36:00
8:56 AM,51.8,46.4,82,29.72,-9999.0,East,3.5,-,N/A,,Overcast,80,2013-08-28 16:56:00
9:16 AM,51.8,46.4,82,29.71,-9999.0,ENE,5.8,-,N/A,,Overcast,70,2013-08-28 17:16:00
9:36 AM,51.8,48.2,88,29.70,-9999.0,Calm,Calm,-,N/A,,Overcast,0,2013-08-28 17:36:00
9:56 AM,53.6,48.2,82,29.71,-9999.0,ESE,3.5,-,N/A,,Overcast,120,2013-08-28 17:56:00
10:16 AM,53.6,48.2,82,29.71,-9999.0,Calm,Calm,-,N/A,,Overcast,0,2013-08-28 18:16:00
10:36 AM,53.6,48.2,82,29.71,-9999.0,SE,4.6,-,N/A,,Overcast,140,2013-08-28 18:36:00
10:56 AM,53.6,48.2,82,29.71,-9999.0,East,4.6,-,N/A,,Overcast,90,2013-08-28 18:56:00
11:16 AM,55.4,48.2,77,29.71,-9999.0,ENE,5.8,-,N/A,,Mostly Cloudy,70,2013-08-28 19:16:00
11:36 AM,53.6,46.4,77,29.71,-9999.0,ENE,4.6,-,N/A,,Mostly Cloudy,70,2013-08-28 19:36:00
11:56 AM,55.4,48.2,77,29.71,-9999.0,ESE,4.6,-,N/A,,Overcast,110,2013-08-28 19:56:00
12:16 PM,55.4,48.2,77,29.70,-9999.0,East,4.6,-,N/A,,Overcast,100,2013-08-28 20:16:00
12:36 PM,57.2,48.2,72,29.70,-9999.0,Calm,Calm,-,N/A,,Mostly Cloudy,0,2013-08-28 20:36:00
12:56 PM,57.2,44.6,63,29.69,-9999.0,Calm,Calm,-,N/A,,Partly Cloudy,0,2013-08-28 20:56:00
1:16 PM,59.0,44.6,59,29.69,-9999.0,East,4.6,-,N/A,,Clear,80,2013-08-28 21:16:00
1:36 PM,59.0,46.4,63,29.69,-9999.0,ESE,3.5,-,N/A,,Scattered Clouds,110,2013-08-28 21:36:00
1:56 PM,57.2,44.6,63,29.68,-9999.0,East,4.6,-,N/A,,Overcast,80,2013-08-28 21:56:00
2:16 PM,59.0,46.4,63,29.67,-9999.0,ESE,3.5,-,N/A,,Overcast,120,2013-08-28 22:16:00
2:36 PM,59.0,46.4,63,29.68,-9999.0,SE,4.6,-,N/A,,Overcast,140,2013-08-28 22:36:00
2:56 PM,59.0,44.6,59,29.67,-9999.0,ESE,3.5,-,N/A,,Overcast,120,2013-08-28 22:56:00
3:16 PM,59.0,44.6,59,29.67,-9999.0,East,3.5,-,N/A,,Overcast,100,2013-08-28 23:16:00
3:36 PM,57.2,48.2,72,29.66,-9999.0,Calm,Calm,-,N/A,,Overcast,0,2013-08-28 23:36:00
3:56 PM,57.2,50.0,77,29.66,-9999.0,Calm,Calm,-,0.01,,Overcast,0,2013-08-28 23:56:00
4:16 PM,57.2,48.2,72,29.65,-9999.0,Calm,Calm,-,N/A,,Overcast,0,2013-08-29 00:16:00
4:36 PM,57.2,50.0,77,29.65,-9999.0,Calm,Calm,-,N/A,,Overcast,0,2013-08-29 00:36:00
4:56 PM,59.0,48.2,67,29.64,-9999.0,Calm,Calm,-,N/A,,Overcast,0,2013-08-29 00:56:00
5:16 PM,59.0,50.0,72,29.63,-9999.0,NW,3.5,-,N/A,,Overcast,320,2013-08-29 01:16:00
5:36 PM,59.0,50.0,72,29.63,-9999.0,NNW,3.5,-,N/A,,Overcast,330,2013-08-29 01:36:00
5:56 PM,57.2,48.2,72,29.63,-9999.0,Calm,Calm,-,N/A,,Overcast,0,2013-08-29 01:56:00
6:16 PM,57.2,44.6,63,29.62,-9999.0,Calm,Calm,-,N/A,,Overcast,0,2013-08-29 02:16:00
6:36 PM,57.2,46.4,67,29.61,-9999.0,Calm,Calm,-,N/A,,Overcast,0,2013-08-29 02:36:00
6:56 PM,57.2,48.2,72,29.61,-9999.0,Calm,Calm,-,N/A,,Overcast,0,2013-08-29 02:56:00
7:16 PM,57.2,48.2,72,29.60,-9999.0,Calm,Calm,-,N/A,,Overcast,0,2013-08-29 03:16:00
7:36 PM,55.4,48.2,77,29.60,-9999.0,Calm,Calm,-,N/A,,Overcast,0,2013-08-29 03:36:00
7:56 PM,55.4,48.2,77,29.60,-9999.0,Calm,Calm,-,N/A,,Overcast,0,2013-08-29 03:56:00
8:16 PM,55.4,50.0,82,29.60,-9999.0,Calm,Calm,-,0.01,,Overcast,0,2013-08-29 04:16:00
8:36 PM,55.4,48.2,77,29.61,-9999.0,North,3.5,-,0.02,,Overcast,350,2013-08-29 04:36:00
8:56 PM,53.6,48.2,82,29.61,-9999.0,NE,4.6,-,0.03,,Mostly Cloudy,40,2013-08-29 04:56:00
9:16 PM,53.6,48.2,82,29.61,-9999.0,NNE,3.5,-,0.03,,Overcast,20,2013-08-29 05:16:00
9:36 PM,53.6,48.2,82,29.61,-9999.0,North,3.5,-,0.07,,Overcast,360,2013-08-29 05:36:00
9:56 PM,53.6,48.2,82,29.61,-9999.0,NNW,4.6,-,0.10,,Overcast,340,2013-08-29 05:56:00
10:16 PM,53.6,48.2,82,29.60,-9999.0,North,5.8,-,0.01,,Overcast,350,2013-08-29 06:16:00
10:36 PM,53.6,48.2,82,29.60,-9999.0,North,5.8,-,0.01,,Overcast,10,2013-08-29 06:36:00
10:56 PM,51.8,48.2,88,29.60,-9999.0,North,3.5,-,0.02,,Overcast,10,2013-08-29 06:56:00
11:16 PM,51.8,48.2,88,29.59,-9999.0,North,4.6,-,N/A,,Overcast,10,2013-08-29 07:16:00
11:36 PM,51.8,48.2,88,29.59,-9999.0,Calm,Calm,-,N/A,,Overcast,0,2013-08-29 07:36:00
11:56 PM,51.8,48.2,88,29.59,-9999.0,North,3.5,-,N/A,,Overcast,350,2013-08-29 07:56:00